Time,TemperatureF,DewpointF,PressureIn,WindDirection,WindDirectionDegrees,WindSpeedMPH,WindSpeedGustMPH,Humidity,HourlyPrecipIn,Conditions,Clouds,dailyrainin,SoftwareType,DateUTC
2013-10-22 00:25:00,80.0,74.0,29.97,South,170,5.0,9.0,79,-99.99,,,-99.99,,2013-10-22 04:25:00,
2013-10-22 00:55:00,81.0,74.0,29.96,SSE,157,6.0,10.0,79,-99.99,,,-99.99,,2013-10-22 04:55:00,
2013-10-22 01:23:00,80.0,74.0,29.95,SSE,160,6.0,10.0,81,-99.99,,,-99.99,,2013-10-22 05:23:00,
2013-10-22 01:34:00,80.0,74.0,29.95,SSE,160,6.0,10.0,81,-99.99,,,-99.99,,2013-10-22 05:34:00,
2013-10-22 01:53:00,80.0,75.0,29.95,South,175,4.0,7.0,84,-99.99,,,-99.99,,2013-10-22 05:53:00,
2013-10-22 02:22:00,78.0,75.0,29.95,SSE,167,3.0,7.0,89,-99.99,,,-99.99,,2013-10-22 06:22:00,
2013-10-22 02:54:00,79.0,74.0,29.94,SSE,161,6.0,11.0,84,-99.99,,,-99.99,,2013-10-22 06:54:00,
2013-10-22 03:23:00,79.0,74.0,29.94,South,185,2.0,8.0,85,-99.99,,,-99.99,,2013-10-22 07:23:00,
2013-10-22 03:52:00,79.0,75.0,29.93,WSW,245,2.0,4.0,87,-99.99,,,-99.99,,2013-10-22 07:52:00,
2013-10-22 04:22:00,78.0,75.0,29.93,SSE,158,1.0,5.0,88,-99.99,,,-99.99,,2013-10-22 08:22:00,
2013-10-22 04:32:00,78.0,75.0,29.93,SSE,158,1.0,5.0,88,-99.99,,,-99.99,,2013-10-22 08:32:00,
2013-10-22 04:52:00,79.0,73.0,29.93,South,170,4.0,6.0,83,-99.99,,,-99.99,,2013-10-22 08:52:00,
2013-10-22 05:22:00,79.0,73.0,29.92,South,171,5.0,8.0,80,-99.99,,,-99.99,,2013-10-22 09:22:00,
2013-10-22 05:33:00,79.0,73.0,29.92,South,171,5.0,8.0,80,-99.99,,,-99.99,,2013-10-22 09:33:00,
2013-10-22 05:54:00,78.0,72.0,29.92,South,177,5.0,7.0,80,-99.99,,,-99.99,,2013-10-22 09:54:00,
2013-10-22 06:23:00,78.0,72.0,29.92,South,174,5.0,8.0,80,-99.99,,,-99.99,,2013-10-22 10:23:00,
2013-10-22 06:33:00,78.0,72.0,29.92,South,174,5.0,8.0,80,-99.99,,,-99.99,,2013-10-22 10:33:00,
2013-10-22 06:54:00,78.0,72.0,29.92,South,173,4.0,6.0,82,-99.99,,,-99.99,,2013-10-22 10:54:00,
2013-10-22 07:22:00,78.0,72.0,29.92,South,178,5.0,7.0,82,-99.99,,,-99.99,,2013-10-22 11:22:00,
2013-10-22 07:33:00,78.0,72.0,29.92,South,178,5.0,7.0,82,-99.99,,,-99.99,,2013-10-22 11:33:00,
2013-10-22 07:53:00,77.0,72.0,29.92,South,180,6.0,8.0,81,-99.99,,,-99.99,,2013-10-22 11:53:00,
2013-10-22 08:22:00,77.0,71.0,29.92,South,172,4.0,7.0,81,-99.99,,,-99.99,,2013-10-22 12:22:00,
2013-10-22 08:32:00,77.0,71.0,29.92,South,172,4.0,7.0,81,-99.99,,,-99.99,,2013-10-22 12:32:00,
2013-10-22 08:52:00,80.0,73.0,29.93,South,178,1.0,3.0,78,-99.99,,,-99.99,,2013-10-22 12:52:00,
2013-10-22 09:22:00,82.0,74.0,29.93,South,182,1.0,6.0,76,-99.99,,,-99.99,,2013-10-22 13:22:00,
2013-10-22 09:32:00,82.0,74.0,29.93,South,182,1.0,6.0,76,-99.99,,,-99.99,,2013-10-22 13:32:00,
2013-10-22 09:53:00,83.0,74.0,29.94,South,179,2.0,5.0,72,-99.99,,,-99.99,,2013-10-22 13:53:00,
2013-10-22 10:22:00,84.0,74.0,29.94,South,175,6.0,14.0,71,-99.99,,,-99.99,,2013-10-22 14:22:00,
2013-10-22 10:32:00,84.0,74.0,29.94,South,175,6.0,14.0,71,-99.99,,,-99.99,,2013-10-22 14:32:00,
2013-10-22 10:52:00,84.0,72.0,29.94,South,172,6.0,13.0,66,-99.99,,,-99.99,,2013-10-22 14:52:00,
2013-10-22 11:22:00,83.0,71.0,29.93,SSE,167,10.0,17.0,67,-99.99,,,-99.99,,2013-10-22 15:22:00,
2013-10-22 11:33:00,83.0,71.0,29.93,SSE,167,10.0,17.0,67,-99.99,,,-99.99,,2013-10-22 15:33:00,
2013-10-22 11:54:00,84.0,71.0,29.92,SSE,162,10.0,16.0,66,-99.99,,,-99.99,,2013-10-22 15:54:00,
2013-10-22 12:23:00,85.0,73.0,29.91,SSE,161,11.0,19.0,68,-99.99,,,-99.99,,2013-10-22 16:23:00,
2013-10-22 12:33:00,85.0,73.0,29.91,SSE,161,11.0,19.0,68,-99.99,,,-99.99,,2013-10-22 16:33:00,
2013-10-22 12:53:00,84.0,73.0,29.91,SSE,160,12.0,21.0,68,-99.99,,,-99.99,,2013-10-22 16:53:00,
2013-10-22 13:22:00,85.0,72.0,29.90,SSE,158,12.0,18.0,65,-99.99,,,-99.99,,2013-10-22 17:22:00,
2013-10-22 13:34:00,85.0,72.0,29.90,SSE,158,12.0,18.0,65,-99.99,,,-99.99,,2013-10-22 17:34:00,
2013-10-22 13:53:00,85.0,72.0,29.89,SSE,157,12.0,19.0,65,-99.99,,,-99.99,,2013-10-22 17:53:00,
2013-10-22 14:22:00,83.0,73.0,29.87,SSE,151,12.0,19.0,72,-99.99,,,-99.99,,2013-10-22 18:22:00,
2013-10-22 14:32:00,83.0,73.0,29.87,SSE,151,12.0,19.0,72,-99.99,,,-99.99,,2013-10-22 18:32:00,
2013-10-22 14:52:00,84.0,73.0,29.86,SSE,168,12.0,18.0,69,-99.99,,,-99.99,,2013-10-22 18:52:00,
2013-10-22 15:22:00,84.0,74.0,29.86,SSE,168,12.0,20.0,72,-99.99,,,-99.99,,2013-10-22 19:22:00,
2013-10-22 15:53:00,84.0,72.0,29.85,South,171,10.0,16.0,66,-99.99,,,-99.99,,2013-10-22 19:53:00,
2013-10-22 16:22:00,85.0,75.0,29.85,South,173,11.0,17.0,71,-99.99,,,-99.99,,2013-10-22 20:22:00,
2013-10-22 16:32:00,85.0,75.0,29.85,South,173,11.0,17.0,71,-99.99,,,-99.99,,2013-10-22 20:32:00,
2013-10-22 16:52:00,84.0,75.0,29.84,SSE,167,11.0,17.0,73,-99.99,,,-99.99,,2013-10-22 20:52:00,
2013-10-22 17:23:00,85.0,75.0,29.83,SSE,163,12.0,18.0,72,-99.99,,,-99.99,,2013-10-22 21:23:00,
2013-10-22 17:54:00,84.0,75.0,29.83,SSE,168,12.0,18.0,73,-99.99,,,-99.99,,2013-10-22 21:54:00,
2013-10-22 18:24:00,83.0,75.0,29.83,South,172,11.0,16.0,75,-99.99,,,-99.99,,2013-10-22 22:24:00,
2013-10-22 18:54:00,83.0,75.0,29.83,South,172,10.0,16.0,77,-99.99,,,-99.99,,2013-10-22 22:54:00,
2013-10-22 19:23:00,82.0,75.0,29.83,South,178,9.0,14.0,78,-99.99,,,-99.99,,2013-10-22 23:23:00,
2013-10-22 19:34:00,82.0,75.0,29.83,South,178,9.0,14.0,78,-99.99,,,-99.99,,2013-10-22 23:34:00,
2013-10-22 19:53:00,82.0,75.0,29.83,South,177,9.0,14.0,79,-99.99,,,-99.99,,2013-10-22 23:53:00,
2013-10-22 20:22:00,82.0,75.0,29.83,South,178,8.0,13.0,80,-99.99,,,-99.99,,2013-10-23 00:22:00,
2013-10-22 20:52:00,81.0,75.0,29.84,South,178,5.0,9.0,81,-99.99,,,-99.99,,2013-10-23 00:52:00,
2013-10-22 21:23:00,81.0,75.0,29.85,South,189,2.0,6.0,82,-99.99,,,-99.99,,2013-10-23 01:23:00,
2013-10-22 21:32:00,81.0,75.0,29.85,South,189,2.0,6.0,82,-99.99,,,-99.99,,2013-10-23 01:32:00,
2013-10-22 21:53:00,80.0,75.0,29.86,SSW,193,1.0,2.0,84,-99.99,,,-99.99,,2013-10-23 01:53:00,
2013-10-22 22:22:00,80.0,75.0,29.87,SE,143,1.0,1.0,84,-99.99,,,-99.99,,2013-10-23 02:22:00,
2013-10-22 22:32:00,80.0,75.0,29.87,SE,143,1.0,1.0,84,-99.99,,,-99.99,,2013-10-23 02:32:00,
2013-10-22 22:54:00,80.0,75.0,29.87,SSW,199,1.0,6.0,84,-99.99,,,-99.99,,2013-10-23 02:54:00,
2013-10-22 23:22:00,80.0,75.0,29.87,SW,232,3.0,8.0,82,-99.99,,,-99.99,,2013-10-23 03:22:00,
2013-10-22 23:34:00,80.0,75.0,29.87,SW,232,3.0,8.0,82,-99.99,,,-99.99,,2013-10-23 03:34:00,
2013-10-22 23:55:00,80.0,73.0,29.87,WSW,245,5.0,10.0,78,-99.99,,,-99.99,,2013-10-23 03:55:00,